パンスターズ彗星

C/2020 K7 ( PanSTARRS )

English version
Home page
Updated on February 21, 2021

---------------------------------------------------------------------

・ プロフィール

発見日 2020年5月30日
発見光度 20.2等
発見者 Pan-STARRS 1 telescope (Haleakala)

・ 写真集

・ 軌道要素

Epoch 2019 Nov. 13.0 TT = JDT 2458800.5
T 2019 Oct. 27.47660 TT                                 Rudenko
q   6.3823298            (2000.0)            P               Q
z  +0.0082053      Peri.  357.99116     +0.24879638     +0.82346317
 +/-0.0000000      Node   286.11158     -0.88106798     -0.02623622
e   0.9476311      Incl.   32.05662     -0.40226803     +0.56676279
From 82 observations 2020 May 30-Nov. 18, mean residual 0".5.

・ 光度変化

        m1 = 7.0 + 5 logΔ + 10.0 log r

---------------------------------------------------------------------

軌道要素はM.P.E.C. 2021-B143に掲載されたものです。
光度グラフはComet for Windowsで作成したものです。

---------------------------------------------------------------------

Copyright(C) Seiichi Yoshida (comet@aerith.net). All rights reserved.